• Em Portugal
  • Lista de países
  • Para 7 dias
  • Temperatura da água
  • Mapas de satélite
  • Mapa do tempo
  • Widgets de tempo
  • user-avatar
    Iniciar Sessão

    Previsão horária em Bursa

    Hoje, 24 Fevereiro, Sábado

    Tempo Temperatura Precipitação Vento Pressão Humidade
    00:00 +6°C° 0 mm 2 m/s 728 mmHg 92%
    01:00 +6°C° 0 mm 2 m/s 728 mmHg 91%
    02:00 +6°C° 0 mm 2 m/s 727 mmHg 91%
    03:00 +6°C° 0 mm 2 m/s 727 mmHg 91%
    04:00 +6°C° 0 mm 2 m/s 727 mmHg 92%
    05:00 +6°C° 0 mm 2 m/s 727 mmHg 92%
    06:00 +6°C° 0 mm 2 m/s 727 mmHg 90%
    07:00 +6°C° 0 mm 2 m/s 727 mmHg 89%
    08:00 +7°C° 0 mm 2 m/s 727 mmHg 87%
    09:00 +9°C° 0 mm 2 m/s 726 mmHg 80%
    10:00 +12°C° 0 mm 2 m/s 726 mmHg 72%
    11:00 +13°C° 0 mm 2 m/s 726 mmHg 65%
    12:00 +14°C° 0,1 mm 2 m/s 725 mmHg 65%
    13:00 +14°C° 0,1 mm 2 m/s 725 mmHg 64%
    14:00 +14°C° 0,1 mm 2 m/s 724 mmHg 64%
    15:00 +12°C° 0,2 mm 3 m/s 724 mmHg 68%
    16:00 +12°C° 0,2 mm 3 m/s 723 mmHg 72%
    17:00 +11°C° 0,2 mm 3 m/s 722 mmHg 76%
    18:00 +10°C° 0,9 mm 3 m/s 722 mmHg 81%
    19:00 +9°C° 0,9 mm 3 m/s 722 mmHg 87%
    20:00 +8°C° 0,9 mm 3 m/s 722 mmHg 92%
    21:00 +8°C° 2,1 mm 3 m/s 722 mmHg 93%
    22:00 +8°C° 2,1 mm 3 m/s 722 mmHg 93%
    23:00 +7°C° 2,1 mm 2 m/s 722 mmHg 93%

    Amanhã, 25 Fevereiro, Domingo

    Tempo Temperatura Precipitação Vento Pressão Humidade
    00:00 +7°C° 0,7 mm 3 m/s 723 mmHg 93%
    01:00 +7°C° 0,7 mm 3 m/s 723 mmHg 94%
    02:00 +7°C° 0,7 mm 3 m/s 723 mmHg 94%
    03:00 +5°C° 1,1 mm 3 m/s 723 mmHg 94%
    04:00 +5°C° 1,1 mm 4 m/s 723 mmHg 94%
    05:00 +5°C° 1,1 mm 4 m/s 724 mmHg 94%
    06:00 +4°C° 0,6 mm 4 m/s 724 mmHg 93%
    07:00 +4°C° 0,6 mm 4 m/s 725 mmHg 92%
    08:00 +4°C° 0,6 mm 3 m/s 726 mmHg 91%
    09:00 +4°C° 0,2 mm 3 m/s 726 mmHg 88%
    10:00 +5°C° 0,2 mm 3 m/s 727 mmHg 84%
    11:00 +5°C° 0,2 mm 4 m/s 727 mmHg 81%
    12:00 +6°C° 0,1 mm 4 m/s 727 mmHg 80%
    13:00 +6°C° 0,1 mm 4 m/s 727 mmHg 79%
    14:00 +6°C° 0,1 mm 4 m/s 727 mmHg 78%
    15:00 +6°C° 0,1 mm 4 m/s 727 mmHg 80%
    16:00 +5°C° 0,1 mm 4 m/s 727 mmHg 82%
    17:00 +5°C° 0,1 mm 4 m/s 727 mmHg 84%
    18:00 +4°C° 0 mm 4 m/s 727 mmHg 86%
    19:00 +4°C° 0 mm 3 m/s 728 mmHg 88%
    20:00 +3°C° 0 mm 3 m/s 728 mmHg 90%
    21:00 +3°C° 0 mm 3 m/s 728 mmHg 90%
    22:00 +3°C° 0 mm 3 m/s 728 mmHg 90%
    23:00 +3°C° 0 mm 3 m/s 728 mmHg 90%

    Depois de amanhã, 26 Fevereiro, Segunda-feira

    Tempo Temperatura Precipitação Vento Pressão Humidade
    00:00 +3°C° 0 mm 3 m/s 727 mmHg 90%
    01:00 +3°C° 0 mm 3 m/s 727 mmHg 90%
    02:00 +2°C° 0 mm 3 m/s 727 mmHg 90%
    03:00 +2°C° 0 mm 3 m/s 726 mmHg 90%
    04:00 +2°C° 0 mm 3 m/s 726 mmHg 90%
    05:00 +2°C° 0 mm 3 m/s 725 mmHg 90%
    06:00 +2°C° 0 mm 3 m/s 725 mmHg 88%
    07:00 +3°C° 0 mm 3 m/s 725 mmHg 85%
    08:00 +4°C° 0 mm 4 m/s 725 mmHg 83%
    09:00 +5°C° 0 mm 4 m/s 725 mmHg 77%
    10:00 +7°C° 0 mm 4 m/s 724 mmHg 71%
    11:00 +10°C° 0 mm 4 m/s 724 mmHg 66%
    12:00 +10°C° 0 mm 5 m/s 723 mmHg 62%
    13:00 +12°C° 0 mm 5 m/s 722 mmHg 58%
    14:00 +13°C° 0 mm 5 m/s 721 mmHg 54%
    15:00 +13°C° 0 mm 5 m/s 720 mmHg 57%
    16:00 +12°C° 0 mm 5 m/s 720 mmHg 61%
    17:00 +12°C° 0 mm 5 m/s 719 mmHg 64%
    18:00 +11°C° 0,1 mm 4 m/s 719 mmHg 69%
    19:00 +10°C° 0,1 mm 4 m/s 719 mmHg 74%
    20:00 +8°C° 0,1 mm 4 m/s 719 mmHg 78%
    21:00 +9°C° 0,5 mm 3 m/s 719 mmHg 81%
    22:00 +8°C° 0,5 mm 3 m/s 719 mmHg 83%
    23:00 +8°C° 0,5 mm 3 m/s 718 mmHg 85%

    27 Fevereiro, Terça-feira

    Tempo Temperatura Precipitação Vento Pressão Humidade
    00:00 +8°C° 0 mm 2 m/s 718 mmHg 85%
    01:00 +8°C° 0 mm 2 m/s 718 mmHg 85%
    02:00 +7°C° 0 mm 2 m/s 719 mmHg 85%
    03:00 +7°C° 0,3 mm 2 m/s 719 mmHg 86%
    04:00 +7°C° 0,3 mm 2 m/s 719 mmHg 86%
    05:00 +7°C° 0,3 mm 2 m/s 719 mmHg 87%
    06:00 +7°C° 0,4 mm 3 m/s 720 mmHg 87%
    07:00 +6°C° 0,4 mm 4 m/s 721 mmHg 88%
    08:00 +6°C° 0,4 mm 4 m/s 722 mmHg 88%
    09:00 +7°C° 0,1 mm 5 m/s 723 mmHg 84%
    10:00 +7°C° 0,1 mm 5 m/s 724 mmHg 80%
    11:00 +8°C° 0,1 mm 6 m/s 725 mmHg 76%
    12:00 +8°C° 0 mm 5 m/s 725 mmHg 74%
    13:00 +8°C° 0 mm 5 m/s 725 mmHg 72%
    14:00 +8°C° 0 mm 4 m/s 726 mmHg 69%
    15:00 +9°C° 0 mm 3 m/s 726 mmHg 71%
    16:00 +9°C° 0 mm 3 m/s 727 mmHg 73%
    17:00 +9°C° 0 mm 2 m/s 727 mmHg 75%
    18:00 +8°C° 0 mm 2 m/s 728 mmHg 78%
    19:00 +7°C° 0 mm 2 m/s 728 mmHg 81%
    20:00 +6°C° 0 mm 2 m/s 729 mmHg 84%
    21:00 +6°C° 0 mm 2 m/s 729 mmHg 83%
    22:00 +6°C° 0 mm 2 m/s 729 mmHg 82%
    23:00 +5°C° 0 mm 3 m/s 729 mmHg 82%

    28 Fevereiro, Quarta-feira

    Tempo Temperatura Precipitação Vento Pressão Humidade
    00:00 +5°C° 0 mm 3 m/s 728 mmHg 81%
    01:00 +5°C° 0 mm 3 m/s 728 mmHg 80%
    02:00 +5°C° 0 mm 3 m/s 728 mmHg 79%
    03:00 +5°C° 0 mm 3 m/s 728 mmHg 78%
    04:00 +5°C° 0 mm 3 m/s 728 mmHg 78%
    05:00 +7°C° 0 mm 3 m/s 728 mmHg 77%
    06:00 +7°C° 0,1 mm 3 m/s 727 mmHg 75%
    07:00 +8°C° 0,1 mm 3 m/s 727 mmHg 73%
    08:00 +7°C° 0,1 mm 4 m/s 727 mmHg 72%
    09:00 +10°C° 0,1 mm 4 m/s 727 mmHg 66%
    10:00 +12°C° 0,1 mm 4 m/s 727 mmHg 59%
    11:00 +13°C° 0,1 mm 4 m/s 727 mmHg 53%
    12:00 +14°C° 0 mm 4 m/s 727 mmHg 51%
    13:00 +15°C° 0 mm 4 m/s 726 mmHg 48%
    14:00 +17°C° 0 mm 4 m/s 726 mmHg 46%
    15:00 +15°C° 0,3 mm 4 m/s 726 mmHg 51%
    16:00 +14°C° 0,3 mm 3 m/s 726 mmHg 56%
    17:00 +15°C° 0,3 mm 2 m/s 727 mmHg 60%
    18:00 +14°C° 0,7 mm 2 m/s 727 mmHg 66%
    19:00 +13°C° 0,7 mm 2 m/s 728 mmHg 72%
    20:00 +12°C° 0,7 mm 2 m/s 728 mmHg 78%
    21:00 +11°C° 1,2 mm 3 m/s 729 mmHg 81%
    22:00 +10°C° 1,2 mm 3 m/s 730 mmHg 85%
    23:00 +10°C° 1,2 mm 3 m/s 731 mmHg 88%

    1 Março, Quinta-feira

    Tempo Temperatura Precipitação Vento Pressão Humidade
    00:00 +9°C° 1,2 mm 3 m/s 731 mmHg 90%
    01:00 +9°C° 1,2 mm 3 m/s 732 mmHg 92%
    02:00 +8°C° 1,2 mm 3 m/s 732 mmHg 94%
    03:00 +8°C° 0,2 mm 3 m/s 733 mmHg 94%
    04:00 +7°C° 0,2 mm 2 m/s 733 mmHg 94%
    05:00 +7°C° 0,2 mm 2 m/s 733 mmHg 94%
    06:00 +7°C° 0 mm 2 m/s 734 mmHg 93%
    07:00 +7°C° 0 mm 2 m/s 734 mmHg 92%
    08:00 +7°C° 0 mm 2 m/s 735 mmHg 90%
    09:00 +9°C° 0 mm 2 m/s 735 mmHg 85%
    10:00 +10°C° 0 mm 2 m/s 735 mmHg 79%
    11:00 +13°C° 0 mm 2 m/s 735 mmHg 74%
    12:00 +13°C° 0 mm 2 m/s 734 mmHg 72%
    13:00 +14°C° 0 mm 2 m/s 734 mmHg 70%
    14:00 +13°C° 0 mm 3 m/s 734 mmHg 69%
    15:00 +14°C° 0 mm 2 m/s 734 mmHg 71%
    16:00 +14°C° 0 mm 2 m/s 734 mmHg 73%
    17:00 +13°C° 0 mm 2 m/s 734 mmHg 75%
    18:00 +12°C° 0 mm 2 m/s 734 mmHg 79%
    19:00 +10°C° 0 mm 2 m/s 734 mmHg 84%
    20:00 +10°C° 0 mm 1 m/s 734 mmHg 88%
    21:00 +10°C° 0 mm 1 m/s 734 mmHg 87%
    22:00 +10°C° 0 mm 1 m/s 734 mmHg 87%
    23:00 +10°C° 0 mm 1 m/s 734 mmHg 86%
    Mostrar mais